This is the latest recevied weather packets stored in our database for station/object OK2ZAW-23. If no packets are shown the sender has not sent any weather packets the latest 10 day(s).
| Time | Temp. | Humidity | Pressure | Rain* | Wind** | Luminosity | Snow |
|---|---|---|---|---|---|---|---|
| 1777541164 | 8.89° C | 34% | 1027.1 hPa | - | - | 335 W/m² | - |
| 1777540851 | 8.33° C | 34% | 1027.2 hPa | - | - | 335 W/m² | - |
| 1777540538 | 8.89° C | 35% | 1027.2 hPa | - | - | 335 W/m² | - |
| 1777539285 | 8.33° C | 35% | 1027.3 hPa | - | - | 335 W/m² | - |
| 1777538033 | 7.78° C | 36% | 1027.4 hPa | - | - | 335 W/m² | - |
| 1777536468 | 7.22° C | 37% | 1027.5 hPa | - | - | 335 W/m² | - |
| 1777535841 | 6.67° C | 40% | 1027.6 hPa | - | - | 335 W/m² | - |
| 1777535528 | 6.67° C | 39% | 1027.6 hPa | - | - | 335 W/m² | - |
| 1777534902 | 6.67° C | 39% | 1027.6 hPa | - | - | 335 W/m² | - |
| 1777534589 | 6.11° C | 41% | 1027.6 hPa | - | - | 335 W/m² | - |
| 1777533963 | 6.11° C | 41% | 1027.5 hPa | - | - | 335 W/m² | - |
| 1777533650 | 5.56° C | 42% | 1027.6 hPa | - | - | 335 W/m² | - |
| 1777533337 | 5.56° C | 44% | 1027.6 hPa | - | - | 335 W/m² | - |
| 1777532398 | 5° C | 46% | 1027.7 hPa | - | - | 335 W/m² | - |
| 1777532086 | 4.44° C | 45% | 1027.7 hPa | - | - | 335 W/m² | - |
| 1777531773 | 4.44° C | 48% | 1027.7 hPa | - | - | 335 W/m² | - |
| 1777531460 | 3.89° C | 48% | 1027.7 hPa | - | - | 335 W/m² | - |
| 1777530209 | 2.78° C | 53% | 1027.6 hPa | - | - | 335 W/m² | - |
| 1777529271 | 1.67° C | 56% | 1027.7 hPa | - | - | 335 W/m² | - |
| 1777528958 | 1.67° C | 58% | 1027.7 hPa | - | - | 335 W/m² | - |
| 1777528645 | 1.11° C | 62% | 1027.7 hPa | - | - | 335 W/m² | - |
| 1777528332 | 0.56° C | 64% | 1027.7 hPa | - | - | 335 W/m² | - |
| 1777527394 | 0° C | 65% | 1027.6 hPa | - | - | 335 W/m² | - |
| 1777526145 | -1.11° C | 67% | 1027.7 hPa | - | - | 335 W/m² | - |
| 1777525519 | -1.67° C | 68% | 1027.6 hPa | - | - | 335 W/m² | - |
* Rain since midnight (hover to see other rain measurements)
** Current wind speed in m/s (hover to see current wind gust speed)